Time,TemperatureF,DewpointF,PressureIn,WindDirection,WindDirectionDegrees,WindSpeedMPH,WindSpeedGustMPH,Humidity,HourlyPrecipIn,Conditions,Clouds,dailyrainin,SolarRadiationWatts/m^2,SoftwareType,DateUTC
2013-04-30 00:09:00,58.3,54.0,29.87,SSE,153,3.0,-999.0,84,-99.99,,,0.00,0,weatherlink.com 1.10,2013-04-30 07:09:00,
2013-04-30 00:24:00,58.1,54.0,29.87,SSW,195,3.0,-999.0,85,-99.99,,,0.00,0,weatherlink.com 1.10,2013-04-30 07:24:00,
2013-04-30 00:39:00,58.1,54.0,29.87,SSW,200,4.0,-999.0,85,-99.99,,,0.00,0,weatherlink.com 1.10,2013-04-30 07:39:00,
2013-04-30 00:54:00,58.1,54.0,29.87,SSW,199,0.0,-999.0,85,-99.99,,,0.00,0,weatherlink.com 1.10,2013-04-30 07:54:00,
2013-04-30 01:09:00,58.1,54.0,29.87,SSE,168,1.0,-999.0,85,-99.99,,,0.00,0,weatherlink.com 1.10,2013-04-30 08:09:00,
2013-04-30 01:24:00,58.0,54.0,29.87,South,171,3.0,-999.0,85,-99.99,,,0.00,0,weatherlink.com 1.10,2013-04-30 08:24:00,
2013-04-30 01:39:00,58.1,54.0,29.87,SW,217,1.0,-999.0,86,-99.99,,,0.00,0,weatherlink.com 1.10,2013-04-30 08:39:00,
2013-04-30 01:54:00,58.1,54.0,29.86,SSW,212,3.0,-999.0,86,-99.99,,,0.00,0,weatherlink.com 1.10,2013-04-30 08:54:00,
2013-04-30 02:09:00,58.0,54.0,29.87,SSE,167,1.0,-999.0,86,-99.99,,,0.00,0,weatherlink.com 1.10,2013-04-30 09:09:00,
2013-04-30 02:24:00,58.1,54.0,29.86,SSW,193,0.0,-999.0,86,-99.99,,,0.00,0,weatherlink.com 1.10,2013-04-30 09:24:00,
2013-04-30 02:39:00,58.1,54.0,29.86,South,181,0.0,-999.0,86,-99.99,,,0.00,0,weatherlink.com 1.10,2013-04-30 09:39:00,
2013-04-30 02:54:00,58.2,54.0,29.86,SSW,192,0.0,-999.0,86,-99.99,,,0.00,0,weatherlink.com 1.10,2013-04-30 09:54:00,
2013-04-30 03:09:00,58.2,54.0,29.85,WSW,247,5.0,-999.0,86,-99.99,,,0.00,0,weatherlink.com 1.10,2013-04-30 10:09:00,
2013-04-30 03:24:00,58.1,54.0,29.86,South,189,0.0,-999.0,86,-99.99,,,0.00,0,weatherlink.com 1.10,2013-04-30 10:24:00,
2013-04-30 03:39:00,58.1,54.0,29.86,South,169,0.0,-999.0,86,-99.99,,,0.00,0,weatherlink.com 1.10,2013-04-30 10:39:00,
2013-04-30 03:54:00,58.2,54.0,29.86,South,189,0.0,-999.0,86,-99.99,,,0.00,0,weatherlink.com 1.10,2013-04-30 10:54:00,
2013-04-30 04:09:00,58.2,54.0,29.86,South,191,1.0,-999.0,85,-99.99,,,0.00,0,weatherlink.com 1.10,2013-04-30 11:09:00,
2013-04-30 04:24:00,58.0,54.0,29.85,NE,53,0.0,-999.0,85,-99.99,,,0.00,0,weatherlink.com 1.10,2013-04-30 11:24:00,
2013-04-30 04:39:00,58.0,54.0,29.85,ENE,57,0.0,-999.0,85,-99.99,,,0.00,0,weatherlink.com 1.10,2013-04-30 11:39:00,
2013-04-30 04:54:00,58.2,54.0,29.85,South,186,0.0,-999.0,85,-99.99,,,0.00,0,weatherlink.com 1.10,2013-04-30 11:54:00,
2013-04-30 05:09:00,58.2,53.0,29.86,SE,139,0.0,-999.0,84,-99.99,,,0.00,0,weatherlink.com 1.10,2013-04-30 12:09:00,
2013-04-30 05:24:00,58.0,53.0,29.85,SE,134,0.0,-999.0,83,-99.99,,,0.00,0,weatherlink.com 1.10,2013-04-30 12:24:00,
2013-04-30 05:39:00,57.8,52.0,29.85,SE,134,0.0,-999.0,82,-99.99,,,0.00,0,weatherlink.com 1.10,2013-04-30 12:39:00,
2013-04-30 05:54:00,57.8,52.0,29.86,SE,134,0.0,-999.0,82,-99.99,,,0.00,0,weatherlink.com 1.10,2013-04-30 12:54:00,
2013-04-30 06:09:00,57.6,53.0,29.85,ENE,76,0.0,-999.0,83,-99.99,,,0.00,0,weatherlink.com 1.10,2013-04-30 13:09:00,
2013-04-30 06:24:00,57.4,52.0,29.85,ENE,69,0.0,-999.0,83,-99.99,,,0.00,7,weatherlink.com 1.10,2013-04-30 13:24:00,
2013-04-30 06:39:00,57.5,52.0,29.86,ENE,68,0.0,-999.0,83,-99.99,,,0.00,14,weatherlink.com 1.10,2013-04-30 13:39:00,
2013-04-30 06:54:00,57.6,53.0,29.86,ENE,68,0.0,-999.0,83,-99.99,,,0.00,23,weatherlink.com 1.10,2013-04-30 13:54:00,
2013-04-30 07:09:00,57.8,52.0,29.86,ENE,69,0.0,-999.0,82,-99.99,,,0.00,32,weatherlink.com 1.10,2013-04-30 14:09:00,
2013-04-30 07:24:00,58.0,53.0,29.87,ENE,68,0.0,-999.0,82,-99.99,,,0.00,42,weatherlink.com 1.10,2013-04-30 14:24:00,
2013-04-30 07:39:00,58.3,53.0,29.87,ENE,68,0.0,-999.0,82,-99.99,,,0.00,54,weatherlink.com 1.10,2013-04-30 14:39:00,
2013-04-30 07:54:00,58.6,53.0,29.87,ENE,69,0.0,-999.0,81,-99.99,,,0.00,72,weatherlink.com 1.10,2013-04-30 14:54:00,
2013-04-30 08:09:00,58.8,53.0,29.87,ENE,69,0.0,-999.0,80,-99.99,,,0.00,79,weatherlink.com 1.10,2013-04-30 15:09:00,
2013-04-30 08:24:00,59.1,53.0,29.87,NE,53,5.0,-999.0,80,-99.99,,,0.00,91,weatherlink.com 1.10,2013-04-30 15:24:00,
2013-04-30 08:40:00,59.5,53.0,29.87,ESE,122,0.0,-999.0,79,-99.99,,,0.00,109,weatherlink.com 1.10,2013-04-30 15:40:00,
2013-04-30 08:55:00,60.3,53.0,29.87,SSE,153,2.0,-999.0,77,-99.99,,,0.00,114,weatherlink.com 1.10,2013-04-30 15:55:00,
2013-04-30 09:10:00,60.6,53.0,29.87,SSE,155,0.0,-999.0,76,-99.99,,,0.00,134,weatherlink.com 1.10,2013-04-30 16:10:00,
2013-04-30 09:25:00,60.8,53.0,29.88,South,171,0.0,-999.0,75,-99.99,,,0.00,153,weatherlink.com 1.10,2013-04-30 16:25:00,
2013-04-30 09:40:00,61.0,53.0,29.88,SSW,198,1.0,-999.0,75,-99.99,,,0.00,149,weatherlink.com 1.10,2013-04-30 16:40:00,
2013-04-30 09:55:00,61.2,53.0,29.88,South,176,0.0,-999.0,75,-99.99,,,0.00,204,weatherlink.com 1.10,2013-04-30 16:55:00,
2013-04-30 10:10:00,61.7,53.0,29.88,SE,134,0.0,-999.0,74,-99.99,,,0.00,244,weatherlink.com 1.10,2013-04-30 17:10:00,
2013-04-30 10:25:00,61.9,53.0,29.88,SE,143,3.0,-999.0,73,-99.99,,,0.00,322,weatherlink.com 1.10,2013-04-30 17:25:00,
2013-04-30 10:40:00,62.7,54.0,29.88,SSW,195,3.0,-999.0,73,-99.99,,,0.00,417,weatherlink.com 1.10,2013-04-30 17:40:00,
2013-04-30 10:55:00,63.4,54.0,29.88,SW,214,4.0,-999.0,72,-99.99,,,0.00,872,weatherlink.com 1.10,2013-04-30 17:55:00,
2013-04-30 11:10:00,64.1,54.0,29.88,SW,227,0.0,-999.0,70,-99.99,,,0.00,510,weatherlink.com 1.10,2013-04-30 18:10:00,
2013-04-30 11:25:00,65.3,55.0,29.88,West,262,5.0,-999.0,69,-99.99,,,0.00,524,weatherlink.com 1.10,2013-04-30 18:25:00,
2013-04-30 11:40:00,65.6,55.0,29.88,West,276,5.0,-999.0,68,-99.99,,,0.00,1079,weatherlink.com 1.10,2013-04-30 18:40:00,
2013-04-30 11:55:00,66.3,55.0,29.88,West,277,5.0,-999.0,66,-99.99,,,0.00,612,weatherlink.com 1.10,2013-04-30 18:55:00,
2013-04-30 12:10:00,66.1,55.0,29.88,SSW,209,6.0,-999.0,67,-99.99,,,0.00,601,weatherlink.com 1.10,2013-04-30 19:10:00,
2013-04-30 12:25:00,67.2,55.0,29.88,SW,236,4.0,-999.0,66,-99.99,,,0.00,916,weatherlink.com 1.10,2013-04-30 19:25:00,
2013-04-30 12:40:00,67.1,56.0,29.88,WSW,258,3.0,-999.0,68,-99.99,,,0.00,418,weatherlink.com 1.10,2013-04-30 19:40:00,
2013-04-30 12:55:00,66.7,55.0,29.87,SSW,203,6.0,-999.0,67,-99.99,,,0.00,506,weatherlink.com 1.10,2013-04-30 19:55:00,
2013-04-30 13:10:00,66.7,56.0,29.87,WSW,250,6.0,-999.0,68,-99.99,,,0.00,1027,weatherlink.com 1.10,2013-04-30 20:10:00,
2013-04-30 13:25:00,66.5,56.0,29.87,SSW,210,9.0,-999.0,69,-99.99,,,0.00,1035,weatherlink.com 1.10,2013-04-30 20:25:00,
2013-04-30 13:40:00,67.2,55.0,29.87,North,357,2.0,-999.0,66,-99.99,,,0.00,970,weatherlink.com 1.10,2013-04-30 20:40:00,
2013-04-30 13:55:00,68.5,56.0,29.88,WSW,252,3.0,-999.0,65,-99.99,,,0.00,923,weatherlink.com 1.10,2013-04-30 20:55:00,
2013-04-30 14:10:00,68.7,56.0,29.87,South,184,6.0,-999.0,64,-99.99,,,0.00,881,weatherlink.com 1.10,2013-04-30 21:10:00,
2013-04-30 14:25:00,67.8,56.0,29.87,SW,233,5.0,-999.0,66,-99.99,,,0.00,856,weatherlink.com 1.10,2013-04-30 21:25:00,
2013-04-30 14:40:00,67.9,56.0,29.87,South,187,6.0,-999.0,66,-99.99,,,0.00,831,weatherlink.com 1.10,2013-04-30 21:40:00,
2013-04-30 14:55:00,68.0,56.0,29.86,SSW,198,6.0,-999.0,66,-99.99,,,0.00,800,weatherlink.com 1.10,2013-04-30 21:55:00,
2013-04-30 15:10:00,68.3,56.0,29.86,SW,224,5.0,-999.0,65,-99.99,,,0.00,763,weatherlink.com 1.10,2013-04-30 22:10:00,
2013-04-30 15:25:00,67.8,56.0,29.85,SSW,194,5.0,-999.0,67,-99.99,,,0.00,729,weatherlink.com 1.10,2013-04-30 22:25:00,
2013-04-30 15:40:00,67.8,56.0,29.85,SW,219,6.0,-999.0,67,-99.99,,,0.00,670,weatherlink.com 1.10,2013-04-30 22:40:00,
2013-04-30 15:55:00,67.8,56.0,29.84,SSW,210,5.0,-999.0,67,-99.99,,,0.00,650,weatherlink.com 1.10,2013-04-30 22:55:00,
2013-04-30 16:10:00,66.8,56.0,29.84,South,188,2.0,-999.0,68,-99.99,,,0.00,612,weatherlink.com 1.10,2013-04-30 23:10:00,
2013-04-30 16:25:00,66.5,56.0,29.85,WSW,243,6.0,-999.0,68,-99.99,,,0.00,596,weatherlink.com 1.10,2013-04-30 23:25:00,
2013-04-30 16:40:00,65.7,56.0,29.85,SW,220,6.0,-999.0,70,-99.99,,,0.00,302,weatherlink.com 1.10,2013-04-30 23:40:00,
2013-04-30 16:55:00,64.4,55.0,29.86,SW,231,4.0,-999.0,71,-99.99,,,0.00,232,weatherlink.com 1.10,2013-04-30 23:55:00,
2013-04-30 17:10:00,63.1,55.0,29.86,SSW,207,3.0,-999.0,74,-99.99,,,0.00,178,weatherlink.com 1.10,2013-05-01 00:10:00,
2013-04-30 17:26:00,62.7,55.0,29.86,West,266,5.0,-999.0,75,-99.99,,,0.00,132,weatherlink.com 1.10,2013-05-01 00:26:00,
2013-04-30 17:41:00,62.2,55.0,29.86,WSW,241,9.0,-999.0,76,-99.99,,,0.00,100,weatherlink.com 1.10,2013-05-01 00:41:00,
2013-04-30 17:56:00,62.0,55.0,29.86,South,175,5.0,-999.0,77,-99.99,,,0.00,72,weatherlink.com 1.10,2013-05-01 00:56:00,
2013-04-30 18:11:00,62.0,55.0,29.86,SW,222,5.0,-999.0,77,-99.99,,,0.00,46,weatherlink.com 1.10,2013-05-01 01:11:00,
2013-04-30 18:26:00,61.4,55.0,29.86,West,278,4.0,-999.0,78,-99.99,,,0.00,28,weatherlink.com 1.10,2013-05-01 01:26:00,
2013-04-30 18:41:00,61.4,55.0,29.87,South,178,2.0,-999.0,79,-99.99,,,0.00,16,weatherlink.com 1.10,2013-05-01 01:41:00,
2013-04-30 18:56:00,61.0,54.0,29.88,SSW,198,3.0,-999.0,79,-99.99,,,0.00,11,weatherlink.com 1.10,2013-05-01 01:56:00,
2013-04-30 19:11:00,60.8,55.0,29.88,SSW,209,0.0,-999.0,80,-99.99,,,0.00,5,weatherlink.com 1.10,2013-05-01 02:11:00,
2013-04-30 19:26:00,60.9,55.0,29.88,SSW,208,6.0,-999.0,80,-99.99,,,0.00,0,weatherlink.com 1.10,2013-05-01 02:26:00,
2013-04-30 19:41:00,60.8,55.0,29.88,SSE,158,2.0,-999.0,80,-99.99,,,0.00,0,weatherlink.com 1.10,2013-05-01 02:41:00,
2013-04-30 19:56:00,60.5,54.0,29.88,SSE,155,2.0,-999.0,80,-99.99,,,0.00,0,weatherlink.com 1.10,2013-05-01 02:56:00,
2013-04-30 20:11:00,60.3,54.0,29.89,South,175,1.0,-999.0,81,-99.99,,,0.00,0,weatherlink.com 1.10,2013-05-01 03:11:00,
2013-04-30 20:26:00,60.3,55.0,29.89,South,181,3.0,-999.0,82,-99.99,,,0.00,0,weatherlink.com 1.10,2013-05-01 03:26:00,
2013-04-30 20:41:00,60.0,55.0,29.89,SSW,199,1.0,-999.0,82,-99.99,,,0.00,0,weatherlink.com 1.10,2013-05-01 03:41:00,
2013-04-30 20:56:00,59.9,54.0,29.89,South,174,0.0,-999.0,82,-99.99,,,0.00,0,weatherlink.com 1.10,2013-05-01 03:56:00,
2013-04-30 21:11:00,59.9,54.0,29.89,South,188,3.0,-999.0,82,-99.99,,,0.00,0,weatherlink.com 1.10,2013-05-01 04:11:00,
2013-04-30 21:26:00,60.0,55.0,29.89,SE,136,0.0,-999.0,82,-99.99,,,0.00,0,weatherlink.com 1.10,2013-05-01 04:26:00,
2013-04-30 21:41:00,60.2,55.0,29.89,East,97,3.0,-999.0,82,-99.99,,,0.00,0,weatherlink.com 1.10,2013-05-01 04:41:00,
2013-04-30 21:56:00,60.2,55.0,29.90,SE,138,2.0,-999.0,82,-99.99,,,0.00,0,weatherlink.com 1.10,2013-05-01 04:56:00,
2013-04-30 22:11:00,60.2,55.0,29.90,SSE,155,0.0,-999.0,82,-99.99,,,0.00,0,weatherlink.com 1.10,2013-05-01 05:11:00,
2013-04-30 22:26:00,60.1,55.0,29.91,South,176,0.0,-999.0,82,-99.99,,,0.00,0,weatherlink.com 1.10,2013-05-01 05:26:00,
2013-04-30 22:41:00,60.0,55.0,29.91,South,169,3.0,-999.0,83,-99.99,,,0.00,0,weatherlink.com 1.10,2013-05-01 05:41:00,
2013-04-30 22:56:00,59.9,55.0,29.92,SSE,156,0.0,-999.0,84,-99.99,,,0.00,0,weatherlink.com 1.10,2013-05-01 05:56:00,
2013-04-30 23:11:00,59.8,55.0,29.92,SSE,168,2.0,-999.0,85,-99.99,,,0.00,0,weatherlink.com 1.10,2013-05-01 06:11:00,
2013-04-30 23:26:00,59.6,56.0,29.92,SSE,165,0.0,-999.0,86,-99.99,,,0.00,0,weatherlink.com 1.10,2013-05-01 06:26:00,
2013-04-30 23:41:00,59.3,55.0,29.91,SSE,165,3.0,-999.0,86,-99.99,,,0.00,0,weatherlink.com 1.10,2013-05-01 06:41:00,
2013-04-30 23:56:00,59.1,55.0,29.91,South,174,4.0,-999.0,87,-99.99,,,0.00,0,weatherlink.com 1.10,2013-05-01 06:56:00,